カタログに戻る

FENGYUN 1C DEB

運用中SSO
NORAD 31325·DEBRIS·🇨🇳 China

打ち上げ May 10, 1999 から Taiyuan Satellite Launch Center

Loading…

次のパス (今後24時間)

TLE

最新Source: Space-Track

元期: Sep 13, 2026, 13:16 UTC

1 31325U 99025BQD 26256.55319890  .00002476  00000-0  11856-2 0  9992
2 31325  98.9926 359.0835 0071193 158.6970 201.7195 14.18666191636721

AllMySatでFENGYUN 1C DEBをリアルタイム追跡

Download on the App Store